Wind_Speed
20 20 18 17 18 17 17 16 15 15 14 13 12 11 11 9 8 7 6 6 5 6 5 4 4 4 5 6 8 9 10 12 13 14 15 16 17 18 18 17 17 15 14 13 13 12 11 9 8 8 9 10 9 8 9 10 10 10 11 11 11 11 10 9 10 11 12 12 12 13 13 13 13 14 15 15 15 15 16 16 16 17 19 22 23 25 27 28
20 18 16 16 18 18 17 17 15 15 14 13 12 11 10 9 8 7 6 6 5 5 4 4 4 5 7 8 10 12 13 14 14 15 15 15 15 15 14 13 12 11 10 11 11 10 9 7 7 8 8 9 8 8 8 8 9 9 10 10 10 10 10 10 11 12 12 12 12 13 13 14 14 15 16 17 17 18 19 18 18 20 22 25 26 28 29 30
20 18 16 17 17 18 17 16 15 14 13 12 11 10 9 8 8 7 6 6 5 5 5 6 7 8 9 11 12 13 13 13 13 13 13 13 12 12 11 11 10 10 10 11 12 11 10 9 8 9 10 10 9 9 9 8 9 9 10 10 10 9 10 11 12 12 13 13 14 14 15 16 16 17 18 19 20 20 20 19 21 23 23 26 27 27 29 29
20 19 18 18 16 16 16 15 14 13 12 11 11 10 9 9 8 7 6 5 5 6 7 9 10 10 11 11 11 10 10 10 9 10 11 10 9 10 10 11 11 11 12 13 13 12 12 11 10 10 11 11 11 10 10 9 9 10 10 10 10 10 11 11 12 13 15 16 17 17 18 18 18 20 20 22 24 21 19 20 23 24 24 25 26 26 28 28
19 20 20 19 17 15 15 14 13 12 12 12 11 11 9 8 7 6 5 6 7 8 9 11 10 10 9 8 7 7 7 7 7 8 9 9 9 10 11 12 13 13 14 14 13 12 12 11 10 10 11 11 11 11 10 10 10 10 10 11 11 12 12 13 14 15 17 18 19 19 19 19 20 21 21 23 24 20 18 21 22 22 22 23 24 24 25 26
19 22 22 21 18 16 15 14 13 13 12 12 10 9 8 7 6 6 7 7 9 10 10 9 8 6 5 5 5 6 6 6 7 8 9 9 10 11 12 13 13 14 14 14 13 11 11 10 10 10 10 10 11 11 10 10 11 11 11 12 13 13 14 15 16 17 19 19 20 20 20 20 21 22 22 22 21 19 18 20 19 19 19 19 20 21 22 23
21 22 22 20 17 16 15 13 13 12 11 10 8 7 6 6 7 8 8 10 10 9 8 6 5 5 5 5 5 6 6 7 8 10 10 10 10 11 11 12 12 12 12 12 11 10 10 9 9 8 8 9 9 10 10 10 11 12 13 13 14 14 15 16 18 19 20 20 20 20 21 22 24 24 22 18 15 16 18 18 17 17 18 18 19 20 22 23
20 20 19 17 15 13 12 11 10 9 8 7 6 6 7 7 8 9 11 11 9 7 6 5 5 5 5 5 6 6 7 8 9 10 10 10 10 10 11 11 11 11 11 10 9 9 9 8 8 7 7 7 8 9 9 10 11 12 12 13 14 15 16 17 18 19 19 20 19 20 20 21 23 22 18 13 11 14 16 16 17 17 18 18 19 20 21 21
17 16 14 13 11 9 8 7 6 5 5 6 6 7 8 9 10 11 11 9 7 6 6 6 6 6 6 6 6 7 7 8 9 10 10 10 10 10 10 10 10 10 9 8 7 8 8 7 6 6 6 6 6 8 8 9 10 11 12 13 14 15 16 16 17 18 18 18 17 16 17 18 19 17 13 11 12 13 14 14 15 16 17 18 18 18 19 20
13 11 10 9 7 5 4 3 4 5 6 8 9 10 10 11 11 10 8 6 6 7 7 7 7 6 6 6 6 6 7 8 8 9 9 9 9 9 9 8 8 7 7 7 6 6 6 5 5 4 5 5 5 6 7 8 9 10 11 12 13 14 14 15 15 16 16 15 14 14 15 13 12 11 10 11 12 12 13 15 16 17 18 18 17 17 18 19
9 7 6 5 3 1 2 3 5 7 8 9 10 10 10 9 8 7 6 6 7 7 7 7 7 7 6 7 6 7 7 7 8 8 8 8 7 7 7 6 6 6 6 5 5 5 4 4 3 3 4 4 5 6 7 7 8 9 10 11 11 12 12 12 12 12 12 12 12 15 14 11 10 10 10 10 11 14 16 17 18 18 17 16 15 16 16 17
5 3 2 1 1 2 3 4 6 7 7 7 7 7 6 5 5 5 6 6 7 7 7 7 7 6 6 6 7 7 7 7 7 7 7 6 5 5 5 5 5 5 5 4 4 4 3 3 2 3 3 4 5 6 6 7 8 8 8 9 9 9 9 9 10 10 11 11 13 15 12 13 13 12 10 12 14 16 16 16 16 15 14 14 13 13 13 14
3 1 1 1 1 2 2 3 3 3 3 3 4 4 5 5 5 5 6 7 7 6 5 5 5 5 6 6 7 6 6 7 7 6 6 5 4 5 5 5 5 4 4 4 3 3 3 3 3 4 4 4 5 5 5 6 6 6 6 7 7 8 8 9 10 10 11 11 13 15 13 14 14 12 13 14 15 16 15 15 14 13 11 11 10 10 11 13
2 1 1 1 2 2 2 2 2 2 3 4 5 5 4 4 5 6 6 6 5 5 4 4 4 5 6 6 6 5 5 6 7 5 4 4 4 4 5 4 4 3 3 3 3 3 4 4 4 5 5 4 5 4 5 5 5 7 6 6 8 9 9 10 10 11 11 12 14 15 14 14 12 12 14 15 14 14 14 14 13 12 11 10 10 11 13 15
2 2 2 2 3 3 3 3 2 3 4 4 4 4 4 5 5 5 4 4 4 3 3 3 4 5 5 5 4 5 5 5 6 4 3 4 4 3 3 3 3 2 3 3 3 4 5 5 6 6 6 6 5 5 5 6 7 8 7 6 8 10 10 10 10 11 12 13 14 14 14 14 12 12 14 12 11 11 11 12 11 11 11 11 12 13 14 15
3 2 2 2 3 3 3 3 3 3 4 4 4 4 4 4 4 3 3 3 3 3 3 3 4 5 4 3 3 4 4 4 4 3 2 2 2 2 3 3 3 3 3 4 4 5 6 6 7 7 7 7 7 6 6 7 7 8 7 7 9 10 10 10 10 11 13 14 15 14 14 14 11 12 13 10 9 9 10 10 11 11 11 11 12 13 14 15
4 3 2 1 1 2 2 3 3 3 4 4 4 3 3 3 2 1 1 1 2 2 3 3 4 4 4 3 4 4 3 2 2 1 1 2 2 3 3 3 4 4 4 4 5 6 6 7 7 7 8 7 7 7 6 6 7 7 7 7 8 9 10 10 10 11 13 15 15 14 13 14 12 11 11 8 8 9 10 11 12 12 12 12 12 13 14 14
4 3 3 3 3 2 1 1 1 2 2 2 2 2 2 2 1 0 1 1 2 2 2 3 3 3 3 3 3 2 1 1 0 1 2 2 3 3 4 4 4 4 4 4 5 5 6 7 7 7 7 7 7 7 6 6 7 8 8 7 8 8 9 11 11 12 14 14 14 14 13 13 12 10 7 7 8 10 11 12 13 12 12 13 13 14 13 12
4 4 4 5 4 3 2 1 0 1 1 1 1 1 1 1 1 1 1 1 1 2 3 3 3 3 2 2 1 0 0 1 1 1 2 2 3 3 4 4 4 5 5 5 5 6 6 7 7 6 6 6 6 6 7 6 6 7 8 8 9 8 9 11 11 12 14 14 13 16 15 13 11 8 6 8 9 11 13 13 13 12 12 13 13 13 12 11
4 3 4 5 5 4 3 2 2 1 1 1 1 1 1 2 2 1 1 1 1 2 3 3 3 3 2 1 1 1 1 1 1 2 2 2 3 3 4 4 5 5 5 5 5 6 7 6 6 6 5 5 5 5 6 6 6 7 8 8 10 11 11 12 12 12 16 15 14 17 17 13 9 7 6 8 10 11 12 12 12 12 12 12 12 13 12 12
3 3 3 5 5 4 3 3 3 2 1 1 1 2 2 2 2 2 2 2 2 3 3 3 3 3 2 1 1 2 1 1 1 2 3 3 4 4 4 5 5 5 5 5 5 6 6 5 5 5 5 4 4 5 5 6 7 8 9 9 10 13 14 14 14 15 19 18 16 17 18 13 6 7 8 9 11 12 13 12 11 11 12 12 12 13 14 13
2 2 3 4 5 5 4 3 3 3 2 2 2 2 3 3 2 3 3 3 3 3 3 2 3 2 1 2 2 2 1 1 1 2 3 4 4 4 5 5 5 5 5 5 5 4 4 4 4 4 4 4 4 5 5 6 8 9 10 11 12 14 16 16 16 19 20 20 19 17 18 15 4 7 9 11 12 12 14 13 11 11 12 12 12 13 14 14
2 1 1 3 4 5 5 4 4 3 2 2 3 3 3 4 4 4 4 4 3 3 2 2 2 2 2 2 2 2 1 1 2 3 4 4 4 4 5 5 4 4 4 4 4 3 3 2 3 3 3 4 5 6 6 7 8 10 12 12 13 15 17 17 19 21 21 23 22 17 18 15 4 9 9 10 13 13 14 14 12 11 12 12 12 13 14 14
2 2 2 2 4 5 5 5 4 4 4 4 4 4 4 4 5 5 4 4 4 3 3 3 2 2 2 3 3 2 2 2 3 4 4 4 4 4 4 4 4 4 3 2 2 2 1 2 2 3 4 5 7 7 8 9 9 11 12 12 14 16 17 19 22 23 23 22 20 19 19 8 8 9 9 10 12 14 14 14 13 13 13 13 13 13 13 14
3 3 3 3 3 4 5 5 5 5 5 5 5 5 5 5 6 6 4 4 4 4 4 4 4 3 2 4 4 3 4 4 4 5 5 4 4 4 3 3 3 2 2 1 0 0 2 3 3 4 5 6 8 10 10 11 12 13 13 13 15 17 19 20 22 25 23 19 18 20 14 2 11 8 8 11 12 13 14 13 12 13 14 13 13 13 14 14
3 3 4 3 3 3 4 5 5 6 6 6 6 7 6 6 6 5 5 6 6 6 6 5 5 4 3 5 6 4 5 5 5 5 5 4 4 3 3 3 2 1 1 2 2 1 2 5 5 6 7 7 8 11 12 12 13 15 15 15 16 19 21 21 23 25 22 18 20 20 10 6 9 9 12 14 14 15 15 14 13 13 14 14 14 15 15 14
5 5 5 4 4 4 4 5 5 6 7 7 7 7 7 7 6 5 5 6 6 6 7 6 6 5 5 6 7 5 5 6 6 5 5 4 4 3 2 2 1 0 1 3 4 3 4 6 7 8 9 9 9 11 12 12 14 15 16 16 18 20 21 22 24 25 23 21 22 20 11 9 11 10 13 16 15 17 17 16 16 17 16 15 14 14 14 13
6 6 6 6 5 5 5 5 6 6 7 7 7 6 6 6 6 4 3 3 2 5 7 7 6 6 6 7 8 7 6 7 6 5 5 4 4 4 2 2 3 2 3 4 5 6 6 7 9 10 10 10 11 12 13 13 14 16 16 18 19 21 22 23 25 24 22 18 16 15 10 7 8 9 12 15 17 18 19 19 19 19 18 15 14 15 15 15
7 7 7 6 6 6 6 6 6 7 7 7 7 5 6 6 5 4 1 1 2 4 5 6 6 7 8 8 8 8 7 8 7 6 6 5 4 5 4 3 4 5 5 6 7 7 7 9 10 11 12 11 11 12 14 14 14 16 18 19 19 21 24 23 21 20 16 11 10 12 9 6 6 12 16 17 19 20 20 20 20 19 17 15 15 18 20 19
8 8 7 7 7 7 7 6 7 7 7 7 6 5 6 6 4 2 1 2 4 5 6 6 6 8 9 9 8 8 8 8 7 7 7 7 6 5 6 6 6 6 6 8 9 8 10 11 12 12 12 12 12 13 14 14 15 17 18 19 20 23 24 19 17 15 9 5 7 8 10 8 5 12 17 17 19 20 22 24 23 19 15 15 16 18 19 19
9 8 8 8 7 7 7 7 8 8 8 7 6 6 6 6 4 2 2 4 5 6 8 8 7 8 9 9 9 9 8 8 8 8 8 8 7 7 7 7 7 7 8 9 9 10 12 11 11 12 12 13 13 13 15 15 17 17 16 17 19 20 17 11 10 7 2 4 4 5 8 9 8 12 16 18 21 24 26 27 25 20 16 16 18 19 19 17
10 9 8 8 8 8 7 8 8 8 8 8 7 6 6 5 5 6 6 6 5 5 7 9 8 8 9 9 9 9 9 9 9 9 9 9 9 9 9 8 8 8 8 8 9 12 13 12 11 12 12 13 13 13 15 17 17 15 14 15 13 10 8 5 4 2 4 6 4 5 6 9 17 23 22 23 26 27 27 26 23 20 18 19 20 20 19 16
11 10 9 9 8 8 8 8 9 9 9 8 7 7 7 4 4 6 7 6 5 6 6 9 9 9 9 10 10 10 10 10 10 10 10 10 10 10 10 10 11 10 10 10 12 13 12 11 11 11 11 12 13 14 15 16 16 15 16 14 7 2 4 4 4 3 6 8 6 8 7 10 20 24 21 21 23 23 23 23 22 21 20 22 22 21 18 16
12 11 10 10 9 9 9 10 10 10 9 9 8 7 7 6 6 7 8 8 9 9 8 8 10 10 10 11 11 11 11 11 12 12 11 11 11 11 11 12 12 13 13 12 11 9 8 10 11 11 12 14 16 17 19 20 20 19 17 12 8 6 3 5 4 3 8 11 8 9 7 7 12 16 18 20 20 21 23 23 23 23 24 24 23 21 18 19
14 12 11 11 10 10 10 10 11 11 10 10 9 9 9 8 7 8 9 8 9 10 9 10 11 11 11 12 12 11 11 11 11 12 12 12 13 13 13 13 13 14 13 11 10 8 9 11 11 13 16 18 21 22 22 22 18 16 13 10 11 11 9 9 9 10 11 12 9 10 11 11 14 20 24 23 22 23 23 24 25 25 26 25 23 21 20 24
15 13 12 11 11 11 11 11 11 12 11 11 10 11 12 10 9 10 10 10 10 10 10 10 11 12 13 13 14 13 13 13 12 12 13 14 15 15 14 14 14 14 13 14 13 9 9 11 12 15 19 22 23 23 24 21 16 15 14 13 15 15 13 11 11 11 7 7 10 12 12 14 15 20 25 23 23 25 25 26 27 27 27 26 23 22 24 29
15 14 12 12 11 11 12 12 12 12 12 12 12 13 13 13 13 13 13 13 13 11 11 11 10 11 11 12 13 13 14 14 13 13 13 12 12 13 13 13 13 13 14 15 15 14 14 16 18 19 21 22 22 22 23 22 20 20 19 17 16 14 12 10 6 4 1 3 9 12 14 13 10 14 23 24 23 25 25 25 26 27 27 25 24 25 28 31
15 14 13 12 12 12 12 12 13 13 13 13 14 14 14 15 14 14 14 15 14 13 13 13 12 12 13 13 13 12 13 14 13 12 12 12 11 11 11 12 12 14 15 15 16 17 18 18 18 18 19 20 20 21 23 24 24 23 22 20 17 12 10 9 5 2 2 2 5 10 16 16 17 22 27 25 22 22 22 23 24 26 25 25 26 29 31 32
15 14 14 13 13 12 13 13 13 13 14 15 15 14 13 14 14 14 14 15 14 14 14 15 14 15 15 15 15 14 14 15 15 14 13 12 12 11 13 14 15 16 16 16 16 19 18 14 14 18 20 19 20 21 24 25 23 22 22 22 21 18 15 13 11 6 4 3 3 8 12 14 20 25 23 20 20 21 20 22 22 23 25 27 29 31 32 33
16 15 14 13 13 13 13 13 14 14 15 16 16 14 14 15 16 15 15 15 15 15 15 15 16 16 17 17 16 16 16 16 16 16 15 15 16 16 15 15 16 16 16 17 18 20 20 16 16 21 23 22 22 22 24 25 23 22 23 23 23 22 18 16 17 17 11 4 2 2 8 16 20 20 20 23 25 25 23 22 23 25 27 29 30 31 33 36
16 15 14 13 13 13 13 14 14 15 15 16 16 15 15 16 17 17 16 16 16 16 17 17 17 18 18 18 17 17 17 18 17 17 17 19 19 17 15 15 17 18 18 20 21 20 20 19 20 26 29 29 29 26 27 28 28 27 26 25 25 24 19 11 10 18 20 13 8 4 7 26 33 28 29 33 31 28 25 24 26 28 29 30 32 34 36 39
16 15 14 13 13 13 14 14 15 16 16 16 16 15 15 16 17 17 16 16 17 17 18 18 18 19 19 19 19 18 18 20 20 19 20 20 19 18 18 19 20 20 21 22 23 22 21 21 25 30 33 32 29 28 28 28 29 30 27 25 24 23 23 17 9 12 16 17 19 9 6 30 46 38 34 35 31 29 27 26 28 29 30 33 34 36 39 40
16 15 14 14 14 14 14 15 15 16 15 15 15 15 16 17 18 17 17 17 17 18 18 18 18 19 19 20 20 19 20 21 21 21 20 20 20 21 21 21 21 21 22 22 22 22 20 18 22 30 35 33 29 27 24 23 24 26 25 23 22 22 26 25 21 19 13 15 20 8 4 31 47 39 35 35 32 30 29 30 31 31 34 35 36 38 40 40
15 15 14 14 13 14 14 14 15 16 16 15 16 16 16 18 18 18 17 17 17 18 18 18 18 18 19 20 20 21 20 19 19 18 18 20 22 22 22 22 22 21 21 21 21 21 19 18 19 21 23 24 22 18 17 20 21 21 21 20 19 22 24 26 29 25 17 24 27 11 9 37 46 37 37 37 34 34 34 33 34 33 35 36 37 39 40 40
15 15 14 13 13 14 14 14 15 15 15 15 16 16 17 17 17 16 16 17 17 18 20 20 19 19 20 20 20 21 21 21 21 21 21 22 23 22 22 21 21 22 23 23 24 24 24 26 25 18 12 11 15 16 22 29 28 24 24 21 19 22 23 26 28 22 18 28 31 19 23 45 47 39 41 41 38 38 36 34 34 35 36 38 38 39 40 41
15 14 14 14 14 14 13 12 12 13 14 15 16 16 16 16 15 15 15 15 16 17 19 20 19 20 21 20 21 21 21 22 24 24 24 24 24 23 22 23 24 25 25 26 26 26 28 32 32 29 28 28 31 32 34 36 36 35 34 30 27 27 28 28 27 27 29 29 31 36 43 48 48 44 44 42 39 38 37 35 36 37 37 38 38 39 41 42
15 14 14 14 13 12 11 12 13 14 15 16 17 17 16 15 15 15 16 16 16 17 18 18 18 19 19 19 20 22 22 22 24 25 25 24 24 24 23 25 25 26 27 27 26 26 29 34 35 35 39 41 40 38 36 36 39 41 40 38 36 34 35 34 34 41 40 27 29 47 49 44 48 48 43 41 40 39 38 37 37 37 36 37 39 40 41 42
15 15 15 15 14 13 13 14 14 15 16 17 18 18 17 16 15 16 17 17 17 17 18 17 15 16 17 16 18 20 21 22 23 23 23 23 24 25 26 28 28 29 29 27 26 25 27 34 37 37 41 43 39 37 37 37 40 42 41 40 39 37 38 41 44 48 43 34 38 51 48 45 49 47 43 43 41 39 38 36 36 36 36 38 40 41 41 43
15 15 16 16 16 15 16 15 15 16 16 18 19 18 18 17 16 16 17 18 18 17 18 18 16 16 17 16 18 20 20 22 23 23 24 26 27 28 30 31 31 30 30 27 26 25 25 32 36 36 41 45 42 39 39 38 40 43 41 38 38 37 38 41 45 45 44 46 50 50 47 48 45 40 39 40 36 35 35 34 35 36 37 39 40 40 42 44
15 15 16 16 17 17 17 16 17 18 18 18 19 18 18 17 16 16 16 17 18 18 18 18 16 17 18 18 20 22 21 23 25 26 27 28 30 30 31 32 32 32 32 30 29 28 27 31 35 36 40 45 44 40 38 37 38 41 41 40 39 38 38 40 42 41 42 46 45 43 46 47 40 34 34 33 31 34 34 34 36 36 37 39 39 41 44 47
16 16 16 17 17 17 17 17 17 18 18 18 18 18 17 17 17 18 17 17 17 17 17 17 17 18 19 20 21 22 22 24 25 26 27 29 30 30 30 32 34 33 34 34 32 32 31 32 36 34 33 40 43 37 36 38 38 40 44 44 39 37 36 36 36 35 36 38 35 34 41 41 36 32 31 30 32 34 34 36 37 36 37 38 40 43 46 49
16 16 16 17 17 17 17 17 17 17 18 17 18 17 17 17 17 18 18 17 16 17 17 18 19 19 20 20 21 22 23 24 26 26 27 29 30 31 31 32 33 34 35 34 33 34 33 32 34 27 25 36 39 33 35 39 33 34 41 39 35 34 33 32 34 35 34 33 31 33 38 38 33 30 30 30 32 34 36 37 36 36 38 39 41 45 48 50
Wind_Direction
191 192 188 185 188 193 190 182 176 175 175 179 178 177 179 176 181 189 192 194 195 201 199 190 198 218 233 248 257 263 268 270 273 276 280 283 286 287 287 288 289 291 293 297 298 298 300 301 301 302 300 300 300 296 292 287 283 281 281 284 289 294 296 294 291 290 292 295 295 295 293 291 285 282 282 282 280 276 271 269 272 275 277 278 278 278 279 279
190 187 179 181 185 181 174 170 171 175 176 175 174 176 178 182 190 191 188 186 190 200 206 216 233 246 255 261 264 268 272 274 278 283 286 288 289 289 290 292 293 296 301 306 307 306 305 304 304 302 299 301 303 301 295 291 288 284 284 288 292 293 291 287 284 285 289 292 293 293 292 289 284 283 283 281 279 276 274 273 275 276 276 277 276 276 277 278
185 179 174 179 178 167 162 166 170 172 173 173 174 177 179 182 183 181 183 189 206 229 246 257 261 264 267 268 270 273 275 279 285 289 290 290 290 291 294 296 298 302 308 310 307 302 300 302 302 299 296 295 297 298 294 293 292 289 290 294 296 293 287 284 281 282 285 289 292 293 291 288 287 286 286 286 284 281 283 287 286 282 280 280 279 279 279 280
183 178 176 175 169 159 156 161 165 169 173 173 170 170 171 174 177 184 198 217 240 259 270 272 273 273 273 273 274 275 277 285 291 293 293 292 291 295 299 300 301 302 304 308 304 296 291 292 295 295 292 289 289 291 291 293 292 291 294 296 297 293 287 285 284 284 287 291 294 294 293 291 290 288 289 289 286 289 298 296 289 285 283 283 283 283 283 284
179 176 172 161 155 151 150 155 162 168 170 167 164 166 171 178 189 204 225 246 261 273 277 277 278 275 272 270 268 270 280 291 295 299 300 296 293 298 302 301 299 299 301 304 303 295 287 284 286 287 286 282 281 283 286 289 290 291 293 293 293 291 289 290 290 292 293 295 296 296 296 294 292 291 291 289 291 305 309 293 286 286 285 284 284 283 284 285
168 165 155 143 141 141 143 151 158 163 164 165 166 172 182 194 212 231 248 263 275 280 279 276 271 261 254 252 260 273 286 295 298 305 306 298 294 297 301 301 300 300 302 304 301 297 290 285 284 282 281 277 274 277 280 283 285 286 287 288 289 290 290 291 292 294 294 295 297 298 299 299 298 296 296 299 310 317 303 289 289 289 287 285 284 284 284 284
146 142 132 127 129 132 139 148 155 161 166 171 178 187 203 220 238 252 264 276 281 278 270 259 247 241 246 254 267 281 292 296 300 305 305 301 298 299 301 302 303 304 305 303 300 298 294 289 286 284 280 275 274 275 277 280 283 284 285 287 288 289 290 291 293 294 296 297 300 304 306 305 302 302 308 319 323 306 291 292 294 291 290 291 290 288 287 286
120 118 117 119 121 127 140 150 158 168 176 187 201 215 231 243 257 267 275 279 273 260 247 243 243 248 259 268 279 288 295 298 301 304 306 305 305 305 305 306 308 306 303 301 299 297 293 289 288 289 286 282 281 278 278 281 283 285 286 289 291 292 292 293 295 297 299 302 309 312 310 307 304 311 326 332 314 297 296 300 300 300 300 299 297 295 294 293
109 110 116 119 118 127 144 155 167 188 207 220 230 241 250 257 267 273 275 271 257 248 248 251 254 259 268 277 285 292 295 297 301 305 308 311 312 310 309 310 309 305 303 303 302 297 292 292 293 296 294 291 288 282 283 284 284 290 290 292 294 295 296 296 298 301 304 309 317 317 311 310 310 321 338 334 319 314 312 310 310 310 307 306 306 305 304 302
108 109 116 123 124 133 155 180 216 237 245 247 251 254 258 264 267 266 259 249 248 254 257 258 259 263 271 277 284 290 294 297 301 305 310 314 314 314 314 313 313 311 312 312 308 302 298 300 303 307 307 303 298 292 292 289 289 295 297 298 301 300 302 304 307 309 313 320 326 325 327 331 330 337 340 331 324 316 311 311 311 309 308 311 311 310 308 306
102 105 118 133 142 185 244 251 252 254 254 255 256 258 261 261 252 241 237 242 253 258 257 256 256 260 267 276 285 291 297 300 301 305 313 320 319 319 319 318 321 323 322 319 313 311 309 310 312 322 326 320 314 306 303 301 301 304 306 308 310 311 313 317 320 322 328 338 339 334 346 10 8 356 338 320 310 305 307 308 305 304 306 309 310 309 309 310
98 106 126 155 227 269 273 264 259 257 254 252 252 251 246 234 223 230 245 255 259 257 254 252 253 262 272 284 292 295 298 298 301 310 320 328 326 321 321 322 326 324 321 318 318 320 321 326 342 351 348 334 323 314 313 318 317 319 322 321 325 330 334 340 343 347 349 349 345 340 1 31 16 353 334 317 316 318 321 319 312 306 303 306 309 310 313 315
101 105 182 222 235 240 244 250 251 243 234 223 211 201 199 207 229 252 264 265 261 258 257 259 267 276 283 289 292 293 296 298 306 317 323 327 328 322 324 327 327 322 318 320 331 345 351 359 12 13 8 350 338 330 333 337 338 345 348 348 1 1 360 4 359 358 356 349 348 344 357 24 15 348 336 331 332 336 336 335 331 322 312 309 311 313 315 314
94 116 178 178 187 184 186 198 186 167 162 167 172 180 201 233 258 270 273 271 271 273 273 278 280 282 286 288 289 292 298 302 310 321 324 329 335 330 328 332 334 331 332 345 5 15 20 27 31 30 29 15 8 7 6 16 20 18 14 13 22 16 7 7 2 360 357 351 350 344 348 7 5 345 340 339 340 342 340 341 339 334 325 318 314 315 316 315
124 148 165 187 199 200 198 195 185 170 170 180 192 214 242 262 273 277 280 283 288 287 285 285 282 286 287 284 291 298 303 306 313 324 331 330 334 334 335 344 357 7 12 26 34 37 42 44 45 42 43 41 38 41 43 44 36 25 20 14 18 18 11 6 3 2 357 352 349 342 348 1 355 340 342 346 348 345 341 340 336 332 326 319 314 314 317 317
149 156 176 205 226 231 221 214 213 212 217 225 235 252 263 274 278 279 282 286 289 283 284 287 297 304 289 275 302 304 307 316 312 319 329 329 340 358 7 12 23 29 28 38 45 50 52 51 51 48 48 52 49 53 55 45 33 26 22 17 14 12 14 9 4 3 355 351 350 340 349 3 351 334 342 351 350 342 337 333 331 327 321 316 312 312 316 316
150 142 137 128 289 269 246 229 228 233 241 247 251 257 266 273 271 265 282 298 302 289 286 298 314 314 278 264 303 311 311 325 313 316 347 7 8 17 28 31 34 31 32 49 56 59 62 59 59 57 56 58 54 51 48 38 27 19 19 20 16 7 8 9 3 2 355 350 349 338 346 2 348 333 342 348 340 335 333 328 325 323 319 317 315 317 323 322
133 111 89 59 32 356 317 258 241 245 248 249 253 265 273 271 237 223 332 333 320 299 286 299 306 309 282 267 296 309 317 350 22 359 12 22 23 28 36 39 40 38 47 63 66 70 73 67 63 63 63 62 55 45 38 33 19 11 11 10 12 2 355 356 355 357 353 350 346 334 342 358 345 331 332 334 331 326 326 325 323 321 319 319 319 325 332 331
123 96 75 59 46 30 10 11 14 279 267 255 267 294 284 262 215 183 3 343 336 322 296 291 280 283 290 275 279 262 87 58 43 21 22 32 45 48 41 44 50 54 64 76 80 80 78 71 65 64 63 58 49 38 31 27 13 2 2 355 354 354 347 343 340 342 343 343 343 333 338 352 342 325 312 313 320 322 324 322 318 318 318 319 321 326 333 333
122 91 68 58 51 47 46 48 45 29 334 291 314 320 296 285 255 238 330 309 296 299 288 280 264 259 259 241 188 151 108 48 25 31 49 66 73 65 55 62 67 68 71 80 87 81 77 73 64 59 57 52 43 33 23 16 6 354 351 344 338 341 341 338 334 335 335 334 338 331 332 349 343 307 289 295 306 316 318 313 308 310 313 314 316 320 323 323
124 99 67 52 47 53 59 56 51 43 359 333 350 326 310 306 278 266 290 273 250 270 281 270 245 230 216 184 155 144 112 73 65 75 81 89 92 82 73 76 77 73 71 80 87 80 74 70 60 53 46 41 31 21 11 2 355 347 344 337 333 336 336 336 334 334 333 328 330 326 326 346 343 276 276 284 296 310 310 301 294 298 305 307 310 315 317 317
104 89 60 46 41 47 52 52 47 41 11 350 342 326 321 310 294 280 265 242 235 256 268 247 217 210 201 169 156 145 129 101 102 111 102 99 102 93 84 83 83 81 79 80 81 76 69 60 53 46 29 24 9 357 353 348 343 339 338 334 332 335 333 332 330 331 330 323 323 320 321 337 318 239 267 279 287 303 304 297 287 289 299 304 309 312 315 318
44 19 12 28 31 36 40 39 34 29 8 345 337 340 328 306 295 278 253 231 234 253 257 241 211 204 204 185 175 160 153 131 126 125 114 109 106 96 91 89 91 92 88 81 75 73 67 48 35 18 2 354 344 340 336 332 333 331 332 331 330 332 330 328 327 328 326 320 317 315 320 328 253 218 249 268 284 299 302 299 292 289 293 298 305 308 311 314
8 342 322 347 16 27 30 27 22 15 357 342 343 339 319 301 286 272 258 241 244 258 254 242 220 216 216 200 185 168 172 162 146 136 123 123 115 103 101 95 95 95 89 85 80 72 42 9 355 345 337 332 326 323 320 318 319 320 322 323 323 325 324 322 322 323 322 318 314 317 324 320 193 212 245 251 278 296 300 299 295 293 291 295 303 306 308 307
355 341 326 328 352 10 17 18 12 4 352 343 338 325 309 298 286 280 279 269 264 262 251 239 226 225 222 205 194 180 181 170 148 142 137 136 130 121 116 107 103 93 81 59 6 323 343 331 321 321 321 325 327 321 316 312 310 312 313 315 316 318 319 318 318 319 320 317 312 319 332 173 175 200 242 245 259 275 286 291 291 294 292 295 303 302 303 301
350 343 337 329 323 334 353 0 0 358 350 341 331 320 307 294 292 294 297 292 275 254 247 241 229 231 232 207 194 181 182 178 161 154 149 142 145 147 143 138 121 77 60 3 330 265 319 321 307 306 304 310 324 326 320 311 310 312 310 311 313 313 315 315 315 316 314 310 308 311 308 224 229 243 240 241 247 253 265 274 280 291 292 293 295 293 293 293
348 337 332 325 314 308 321 338 346 348 344 337 329 319 302 291 297 298 298 302 278 241 235 236 232 236 229 201 191 188 187 182 171 165 163 158 164 170 170 187 211 314 311 333 337 313 310 315 308 302 296 293 304 322 323 312 309 311 309 309 311 311 313 312 313 311 305 303 304 300 283 252 270 268 235 231 243 251 252 258 273 288 294 291 286 286 286 284
346 336 329 322 317 308 309 319 325 329 332 331 328 317 297 292 299 292 291 321 283 236 229 231 234 230 212 197 201 209 204 190 183 182 182 185 193 196 209 225 237 263 280 303 327 325 307 308 309 301 297 292 289 307 318 312 308 309 307 308 310 311 310 310 309 304 302 304 299 289 270 246 260 257 237 238 250 253 249 255 274 288 292 287 284 291 290 282
344 335 326 319 317 310 306 306 307 315 319 322 325 311 291 288 290 286 268 285 272 243 226 226 230 219 205 202 206 210 204 195 198 205 200 205 216 222 237 248 256 272 280 285 301 316 311 311 309 298 296 294 285 294 306 308 307 307 307 307 310 310 308 310 305 298 300 296 278 269 246 224 256 256 249 253 257 255 257 268 282 289 286 280 285 294 291 282
342 333 323 317 313 307 304 301 301 306 310 317 320 300 286 278 273 275 216 264 277 256 233 226 221 210 204 207 208 207 205 203 212 216 212 222 231 235 248 261 268 271 283 288 286 292 303 306 302 295 293 290 284 287 296 303 305 306 306 306 311 311 310 308 296 293 302 279 254 245 229 215 261 269 258 256 255 260 270 280 288 287 274 270 279 283 281 279
337 329 320 313 308 303 303 300 299 303 307 314 311 292 282 275 260 207 197 277 288 266 237 220 213 209 209 214 214 211 212 212 214 216 221 233 237 244 257 265 270 277 288 289 281 284 294 296 293 294 288 284 283 284 291 299 303 304 303 307 314 314 311 301 284 280 272 258 239 222 226 207 220 267 275 268 264 269 277 284 287 281 268 269 276 277 275 277
332 324 318 311 306 302 300 298 298 301 304 307 303 288 279 276 255 238 253 278 294 283 240 221 222 221 217 220 220 219 220 220 222 228 235 241 246 252 257 260 269 282 286 286 290 293 293 288 290 294 286 282 283 283 291 300 302 301 299 306 316 320 324 305 263 241 233 252 247 223 221 223 249 274 284 277 273 274 278 281 279 271 267 271 275 277 276 275
328 319 313 309 306 302 299 297 297 299 303 302 296 284 273 263 251 257 267 270 279 300 266 230 229 228 224 227 226 224 228 229 232 237 242 248 253 256 259 264 269 273 272 284 299 300 295 292 295 294 287 288 289 290 297 300 300 298 297 300 297 323 1 309 274 292 274 268 247 226 228 250 265 280 285 275 274 274 274 274 270 266 267 271 274 276 275 276
326 318 311 307 306 303 299 297 296 298 302 298 291 281 261 249 263 277 282 278 274 282 278 247 237 234 232 233 232 231 237 241 241 244 249 255 259 260 263 268 270 270 270 280 293 289 280 289 298 298 294 297 298 298 300 299 298 297 294 287 261 232 241 261 258 274 289 297 273 226 226 243 257 281 287 279 275 272 271 269 266 267 269 271 274 272 272 285
324 317 310 306 304 301 298 296 297 298 299 296 287 272 257 257 275 281 285 294 285 275 274 260 245 242 241 239 239 238 241 246 247 248 250 254 263 268 268 271 273 273 269 270 282 277 260 270 287 293 292 295 297 296 296 296 296 293 284 266 258 258 245 245 261 265 282 309 289 235 237 246 257 279 282 277 274 271 270 268 266 269 270 271 272 269 275 294
322 317 312 307 301 299 297 294 296 296 296 294 283 273 270 273 279 280 281 292 293 282 276 266 250 248 251 247 245 244 244 249 254 258 258 260 268 270 271 275 275 272 268 269 278 277 255 256 275 286 288 291 291 290 289 288 282 276 272 268 273 277 262 247 267 279 280 299 278 253 252 251 255 274 276 272 275 273 270 270 270 270 270 270 267 268 282 297
319 316 313 307 301 297 295 293 293 293 293 289 281 280 283 281 279 280 280 282 285 281 274 269 257 252 255 253 250 249 249 251 256 262 264 266 270 269 270 274 274 272 274 274 276 275 268 268 277 284 286 286 286 285 284 282 276 269 267 273 277 278 265 241 253 307 301 265 269 258 256 242 221 258 273 273 276 276 273 273 272 270 269 266 264 274 289 299
317 315 311 306 301 296 293 292 291 290 290 286 284 286 286 284 283 282 279 278 280 277 272 268 261 254 255 258 259 257 254 254 257 261 266 270 270 268 269 275 280 281 280 279 275 276 278 280 285 286 282 282 282 279 279 280 277 270 267 269 267 261 251 227 214 276 253 245 277 268 266 252 236 255 273 278 280 280 277 275 273 269 265 262 269 283 294 299
316 314 309 303 299 295 293 292 291 290 288 287 290 290 286 285 285 282 281 280 279 277 272 266 261 257 257 260 264 265 262 261 262 263 267 269 267 270 277 283 286 285 284 281 276 278 280 278 285 288 284 280 275 273 278 280 277 270 262 260 259 255 250 237 226 222 214 220 270 286 285 269 263 272 281 286 288 285 283 281 273 266 264 269 280 290 294 297
314 311 305 302 300 297 294 292 291 290 289 290 293 291 288 286 284 282 280 280 280 278 274 267 262 259 260 263 265 268 268 266 267 267 266 267 273 280 283 284 285 285 283 281 279 282 280 271 276 287 285 279 278 282 286 285 280 270 261 258 259 256 250 248 246 238 229 217 206 276 284 274 277 286 288 290 292 290 287 282 274 270 274 281 288 291 294 299
312 309 304 303 301 298 295 293 291 290 291 294 295 294 291 287 283 282 279 278 278 276 272 269 263 260 263 265 266 268 270 269 270 271 270 273 278 282 283 285 287 287 284 282 282 283 280 274 275 281 282 282 287 290 287 283 280 273 268 267 267 262 249 245 254 242 232 228 228 203 270 276 278 283 286 291 293 290 288 283 279 281 285 290 293 295 299 303
310 308 306 304 301 298 297 295 293 294 295 297 297 294 291 286 284 283 280 277 276 274 273 270 266 263 263 265 267 267 269 271 273 275 276 278 280 280 283 287 287 287 286 284 284 284 282 277 276 281 287 290 291 289 285 283 279 273 270 269 268 263 249 237 237 245 233 228 239 232 259 278 280 283 288 292 292 290 291 289 288 291 294 296 298 300 303 305
310 308 306 304 301 299 298 298 297 298 300 300 297 294 290 286 284 283 281 279 278 276 275 274 271 268 266 266 268 268 270 273 275 276 276 279 282 283 285 288 288 287 286 285 286 286 282 275 276 286 294 294 291 288 285 283 277 271 271 270 265 261 257 249 246 254 253 237 238 223 238 273 279 285 288 291 292 292 293 293 294 296 297 299 300 301 304 305
311 308 306 303 301 300 301 301 300 300 300 299 297 295 292 289 287 286 285 283 281 279 277 276 274 272 270 269 269 270 271 272 274 275 275 279 284 286 287 289 289 288 286 285 286 287 283 275 274 287 300 302 299 296 293 291 286 277 274 271 264 262 261 256 252 253 258 257 250 220 239 270 278 284 287 290 291 292 295 295 296 297 297 299 300 301 302 303
311 308 305 303 302 302 303 301 299 299 301 302 301 298 295 292 293 293 291 286 283 280 279 278 277 275 273 271 271 271 270 271 273 275 278 282 284 287 289 291 291 289 289 288 287 287 284 278 273 271 273 281 285 289 296 300 298 289 282 276 268 265 261 259 258 248 246 258 253 231 249 270 277 280 284 289 291 293 295 294 294 297 298 299 300 299 300 301
312 309 307 305 304 303 303 303 303 304 307 308 307 305 303 303 301 298 296 293 288 286 283 280 277 275 274 273 273 274 274 275 275 276 281 285 286 289 290 289 289 290 290 290 289 288 284 281 280 275 269 271 278 285 292 294 290 287 286 282 276 273 269 264 257 247 247 255 256 256 262 271 277 281 285 289 291 292 294 293 294 298 298 298 298 297 298 299
312 310 307 306 305 303 301 304 306 307 309 309 308 308 310 311 308 302 299 296 292 291 289 284 280 278 279 279 279 279 278 277 277 279 285 289 289 290 289 289 290 291 292 291 290 287 282 283 285 283 283 285 286 288 290 289 286 285 284 283 281 279 273 265 258 257 258 253 261 272 272 271 279 287 288 288 291 292 292 293 295 296 295 295 295 295 297 299
313 311 308 305 303 300 299 303 306 308 310 309 307 308 309 309 308 305 302 297 294 292 289 287 288 289 287 283 281 280 280 281 283 286 290 291 291 292 292 294 296 295 295 294 291 286 281 283 288 288 290 292 290 291 293 290 289 288 285 284 285 280 275 270 268 269 264 253 262 276 277 275 283 291 290 288 291 292 291 292 292 292 293 293 295 297 299 300
313 311 309 307 304 302 301 302 304 306 308 309 309 309 308 306 305 304 302 300 297 293 290 289 291 289 287 283 280 280 284 290 292 292 292 293 294 296 298 300 299 299 299 297 294 290 281 283 288 289 292 295 293 294 297 294 292 291 288 288 288 283 278 275 275 276 268 261 269 277 277 278 287 292 289 289 291 289 289 290 289 291 294 295 297 299 300 302
314 312 311 309 307 306 304 303 303 303 304 306 307 307 306 305 304 303 303 303 301 298 296 295 292 287 286 286 285 286 291 294 293 294 295 296 297 299 301 300 300 300 300 297 294 291 282 282 288 289 291 295 297 299 301 298 296 294 292 293 293 289 285 282 280 279 272 269 278 280 275 279 291 295 291 290 289 287 288 289 291 294 295 297 298 299 301 305
314 314 313 311 310 310 309 307 305 303 303 304 304 304 304 304 303 302 302 303 304 304 302 301 300 295 292 292 292 295 297 296 295 297 298 298 299 300 299 298 299 298 298 296 293 291 286 283 288 289 288 293 298 301 302 300 298 294 294 299 301 297 293 290 287 285 280 279 283 280 275 284 296 296 289 288 287 288 290 291 294 296 296 297 299 301 304 307
315 314 315 313 314 315 313 310 308 305 304 304 303 303 303 303 303 303 303 304 306 308 307 304 303 300 300 300 300 300 300 299 299 300 299 298 299 300 298 298 298 298 296 295 293 292 289 285 286 286 284 291 297 299 300 303 302 296 298 306 309 304 299 296 293 293 291 287 282 278 282 291 296 291 287 288 288 290 292 293 296 297 297 299 301 305 308 310
Height
3125 3128 3130 3131 3132 3134 3135 3137 3138 3139 3141 3142 3142 3143 3144 3145 3146 3147 3148 3148 3149 3149 3150 3151 3151 3151 3151 3151 3151 3151 3151 3151 3150 3150 3150 3149 3149 3149 3148 3148 3148 3147 3147 3146 3146 3145 3145 3145 3144 3144 3144 3143 3144 3144 3143 3143 3143 3143 3143 3143 3143 3143 3143 3143 3142 3142 3142 3142 3141 3141 3141 3140 3140 3139 3139 3139 3139 3139 3138 3139 3138 3138 3138 3137 3136 3135 3135 3135
3126 3128 3130 3131 3131 3133 3135 3137 3138 3139 3141 3141 3143 3143 3144 3145 3146 3147 3148 3148 3149 3149 3150 3150 3151 3151 3151 3151 3150 3150 3150 3150 3149 3149 3148 3148 3148 3147 3147 3146 3146 3146 3146 3145 3144 3144 3144 3144 3144 3143 3143 3143 3143 3143 3142 3142 3142 3142 3142 3142 3142 3142 3142 3142 3141 3141 3141 3141 3140 3140 3139 3139 3138 3138 3137 3137 3137 3137 3136 3137 3137 3137 3136 3134 3133 3133 3132 3132
3126 3128 3129 3131 3131 3132 3134 3136 3138 3140 3141 3142 3143 3144 3145 3146 3146 3147 3148 3148 3149 3149 3149 3150 3150 3150 3150 3150 3150 3149 3149 3148 3148 3147 3147 3147 3147 3146 3146 3145 3145 3145 3144 3144 3143 3143 3143 3143 3143 3142 3142 3142 3142 3142 3141 3141 3141 3141 3141 3141 3141 3141 3141 3141 3140 3140 3140 3140 3139 3139 3138 3138 3137 3136 3136 3135 3135 3134 3135 3135 3134 3133 3133 3131 3131 3130 3130 3129
3125 3127 3129 3131 3132 3132 3134 3136 3138 3140 3141 3142 3143 3144 3145 3146 3147 3147 3148 3148 3148 3149 3149 3149 3149 3149 3149 3149 3149 3148 3147 3147 3147 3146 3146 3146 3146 3145 3145 3144 3144 3144 3143 3143 3142 3142 3142 3142 3142 3141 3141 3141 3141 3141 3140 3140 3140 3140 3140 3140 3140 3140 3140 3140 3139 3139 3139 3138 3138 3137 3137 3136 3135 3135 3134 3133 3132 3132 3133 3133 3131 3130 3129 3129 3128 3127 3127 3126
3126 3128 3130 3131 3132 3133 3135 3137 3139 3141 3142 3142 3143 3144 3145 3146 3146 3147 3147 3148 3148 3148 3148 3148 3148 3148 3148 3148 3148 3147 3147 3146 3146 3146 3145 3145 3145 3144 3144 3143 3143 3143 3142 3142 3141 3141 3140 3141 3141 3140 3140 3140 3139 3139 3139 3139 3139 3139 3139 3139 3139 3139 3139 3138 3138 3138 3137 3137 3136 3136 3135 3134 3134 3133 3132 3131 3130 3130 3130 3129 3127 3127 3126 3126 3125 3125 3124 3123
3126 3128 3130 3131 3133 3134 3136 3138 3140 3141 3142 3143 3143 3144 3145 3145 3146 3147 3147 3147 3147 3147 3147 3147 3147 3147 3147 3147 3147 3146 3146 3146 3145 3145 3145 3144 3144 3144 3143 3142 3142 3141 3141 3140 3140 3140 3140 3139 3139 3139 3139 3139 3138 3138 3138 3138 3138 3138 3138 3138 3138 3138 3138 3137 3137 3136 3136 3135 3135 3134 3133 3132 3131 3130 3130 3129 3128 3128 3127 3125 3125 3124 3123 3123 3123 3122 3121 3121
3128 3128 3129 3131 3133 3135 3137 3139 3141 3142 3143 3143 3143 3144 3145 3145 3146 3146 3146 3147 3146 3146 3146 3146 3147 3147 3147 3146 3146 3145 3145 3145 3144 3144 3144 3143 3143 3142 3142 3141 3141 3140 3140 3139 3139 3139 3139 3138 3138 3138 3138 3137 3137 3137 3137 3137 3137 3137 3137 3137 3137 3137 3137 3136 3136 3135 3134 3133 3133 3132 3130 3130 3128 3127 3127 3127 3126 3125 3123 3122 3122 3122 3121 3121 3120 3120 3119 3118
3129 3130 3130 3133 3135 3136 3138 3140 3141 3142 3142 3143 3143 3143 3144 3145 3145 3145 3146 3146 3146 3146 3146 3146 3146 3146 3146 3145 3145 3144 3144 3144 3143 3143 3143 3142 3142 3141 3141 3140 3140 3139 3139 3138 3138 3138 3137 3137 3137 3137 3137 3136 3136 3136 3136 3136 3136 3136 3136 3136 3136 3136 3135 3135 3134 3133 3133 3132 3131 3130 3128 3127 3126 3125 3125 3124 3123 3122 3121 3121 3120 3119 3119 3118 3118 3117 3116 3116
3130 3131 3133 3135 3136 3138 3139 3140 3141 3141 3142 3142 3142 3143 3144 3144 3144 3144 3145 3145 3145 3145 3145 3145 3145 3145 3145 3144 3144 3144 3143 3143 3143 3142 3142 3141 3141 3140 3139 3139 3139 3138 3138 3138 3137 3137 3136 3136 3136 3136 3136 3136 3136 3135 3135 3136 3135 3135 3135 3135 3135 3134 3134 3133 3132 3132 3131 3130 3129 3128 3127 3126 3125 3124 3124 3122 3122 3121 3120 3119 3118 3118 3117 3116 3115 3115 3114 3113
3132 3133 3134 3136 3137 3138 3139 3139 3140 3141 3141 3142 3142 3142 3143 3143 3144 3144 3144 3144 3144 3144 3144 3144 3144 3144 3144 3143 3143 3143 3143 3142 3142 3142 3141 3140 3140 3139 3138 3138 3138 3137 3137 3137 3136 3136 3136 3135 3135 3135 3135 3135 3135 3135 3135 3135 3135 3134 3134 3134 3133 3133 3132 3131 3131 3130 3129 3129 3128 3126 3125 3125 3124 3123 3123 3121 3121 3119 3118 3118 3117 3116 3115 3114 3114 3113 3112 3111
3133 3134 3135 3136 3137 3138 3138 3139 3140 3140 3141 3141 3141 3141 3142 3142 3143 3143 3143 3143 3143 3143 3143 3143 3143 3143 3142 3142 3142 3142 3142 3141 3141 3141 3140 3139 3139 3138 3138 3137 3137 3137 3136 3136 3136 3135 3135 3135 3134 3134 3134 3134 3134 3134 3134 3134 3134 3133 3133 3133 3132 3131 3131 3130 3129 3129 3128 3127 3126 3124 3124 3124 3123 3122 3122 3120 3119 3118 3117 3116 3115 3114 3113 3113 3112 3111 3110 3109
3134 3135 3136 3136 3137 3138 3138 3139 3139 3140 3140 3140 3140 3141 3141 3141 3142 3142 3143 3143 3142 3142 3142 3142 3142 3142 3141 3141 3141 3141 3141 3140 3140 3140 3139 3139 3138 3138 3137 3137 3137 3136 3136 3135 3135 3135 3134 3134 3134 3134 3134 3134 3133 3133 3133 3133 3133 3132 3132 3131 3131 3130 3130 3129 3128 3128 3127 3126 3125 3124 3123 3123 3122 3121 3120 3119 3118 3117 3116 3115 3113 3112 3112 3111 3110 3110 3109 3108
3135 3135 3136 3137 3137 3138 3138 3138 3139 3139 3139 3139 3140 3140 3141 3141 3142 3142 3142 3142 3141 3141 3141 3141 3141 3141 3141 3140 3140 3140 3140 3140 3139 3139 3138 3138 3138 3137 3137 3136 3136 3136 3135 3135 3135 3134 3134 3134 3133 3133 3133 3133 3133 3133 3133 3132 3132 3132 3131 3131 3131 3130 3129 3128 3128 3127 3126 3125 3125 3124 3122 3122 3121 3120 3119 3118 3117 3116 3114 3113 3111 3110 3110 3109 3109 3108 3107 3106
3135 3136 3136 3137 3137 3138 3138 3138 3138 3139 3139 3139 3140 3141 3141 3141 3141 3141 3141 3141 3140 3140 3140 3140 3140 3140 3140 3140 3140 3140 3139 3139 3138 3138 3138 3137 3137 3137 3136 3136 3136 3135 3135 3134 3134 3134 3134 3133 3133 3133 3132 3132 3132 3132 3132 3132 3132 3131 3131 3130 3130 3130 3129 3128 3127 3126 3126 3125 3124 3123 3122 3121 3120 3119 3118 3117 3116 3115 3113 3112 3110 3109 3108 3108 3107 3107 3106 3105
3136 3136 3137 3137 3138 3138 3138 3138 3138 3139 3139 3140 3140 3141 3141 3141 3141 3140 3140 3140 3140 3140 3140 3140 3140 3140 3140 3140 3139 3139 3139 3138 3138 3138 3137 3137 3137 3136 3136 3136 3135 3135 3134 3134 3134 3133 3133 3133 3133 3132 3132 3132 3132 3132 3132 3132 3131 3131 3130 3130 3130 3129 3128 3127 3127 3126 3125 3124 3123 3122 3121 3121 3119 3118 3117 3116 3115 3113 3112 3111 3110 3108 3108 3107 3106 3105 3104 3103
3137 3137 3138 3138 3138 3138 3138 3138 3138 3139 3139 3140 3140 3140 3140 3140 3140 3139 3139 3139 3139 3139 3140 3140 3140 3139 3139 3139 3139 3139 3138 3138 3138 3137 3137 3137 3136 3136 3136 3135 3135 3135 3134 3134 3133 3133 3133 3133 3133 3132 3132 3132 3132 3132 3132 3131 3131 3131 3130 3130 3129 3129 3128 3127 3126 3125 3124 3123 3123 3122 3121 3120 3119 3117 3116 3115 3114 3112 3111 3110 3109 3108 3107 3106 3105 3104 3103 3101
3138 3138 3138 3138 3138 3138 3138 3138 3138 3139 3139 3139 3139 3139 3139 3139 3139 3139 3139 3139 3139 3139 3139 3139 3139 3139 3139 3139 3139 3138 3138 3138 3137 3137 3137 3137 3136 3136 3135 3135 3135 3134 3134 3133 3133 3133 3133 3133 3133 3132 3132 3132 3132 3132 3131 3131 3131 3131 3130 3130 3129 3128 3127 3127 3126 3125 3124 3123 3121 3121 3120 3119 3118 3116 3115 3114 3112 3111 3110 3109 3108 3107 3105 3105 3103 3102 3101 3100
3138 3138 3138 3138 3137 3137 3138 3138 3138 3138 3139 3139 3139 3139 3139 3139 3139 3139 3139 3139 3139 3139 3139 3139 3139 3139 3138 3138 3138 3138 3138 3137 3137 3137 3136 3136 3136 3135 3135 3135 3135 3134 3134 3133 3133 3133 3133 3133 3133 3132 3132 3132 3132 3132 3131 3131 3131 3130 3130 3129 3129 3128 3127 3126 3125 3124 3123 3122 3121 3120 3119 3118 3117 3115 3114 3112 3111 3110 3109 3108 3106 3105 3104 3103 3102 3101 3100 3099
3138 3138 3138 3138 3137 3137 3137 3138 3138 3138 3139 3139 3139 3139 3139 3139 3139 3138 3138 3138 3138 3138 3138 3138 3138 3138 3138 3138 3138 3137 3137 3137 3137 3136 3136 3136 3135 3135 3135 3135 3134 3134 3134 3134 3133 3133 3133 3133 3133 3133 3132 3132 3132 3132 3131 3131 3131 3130 3130 3129 3128 3128 3127 3126 3125 3124 3122 3121 3120 3118 3117 3117 3116 3114 3112 3111 3110 3108 3107 3106 3105 3104 3103 3102 3100 3099 3098 3097
3138 3138 3138 3138 3138 3138 3138 3138 3138 3138 3138 3138 3138 3138 3139 3138 3138 3138 3138 3138 3138 3138 3138 3138 3138 3138 3138 3137 3137 3137 3137 3137 3136 3136 3136 3135 3135 3135 3135 3135 3134 3134 3134 3134 3134 3133 3133 3133 3133 3133 3132 3132 3132 3132 3131 3131 3131 3130 3129 3129 3128 3127 3126 3125 3124 3123 3121 3120 3118 3116 3115 3115 3114 3112 3111 3109 3108 3107 3106 3105 3104 3102 3101 3100 3099 3098 3097 3096
3138 3139 3139 3139 3138 3138 3138 3138 3138 3138 3138 3138 3138 3138 3138 3138 3138 3138 3138 3138 3138 3138 3138 3138 3138 3137 3137 3137 3137 3137 3137 3136 3136 3136 3136 3135 3135 3135 3135 3135 3134 3134 3134 3134 3134 3133 3133 3133 3133 3133 3132 3132 3132 3132 3131 3131 3130 3129 3129 3128 3127 3126 3125 3123 3122 3121 3120 3118 3117 3115 3113 3114 3113 3110 3109 3107 3106 3105 3105 3103 3102 3101 3100 3099 3098 3097 3096 3095
3138 3139 3139 3139 3139 3138 3138 3138 3138 3138 3138 3138 3138 3138 3138 3138 3138 3138 3138 3138 3138 3138 3138 3137 3137 3137 3137 3137 3136 3136 3136 3136 3136 3136 3135 3135 3135 3135 3135 3135 3134 3134 3134 3134 3134 3133 3133 3133 3133 3133 3132 3132 3132 3131 3131 3130 3129 3129 3128 3127 3126 3124 3123 3122 3121 3119 3118 3116 3115 3114 3112 3112 3111 3108 3107 3105 3104 3103 3102 3101 3101 3099 3098 3098 3097 3096 3095 3094
3138 3139 3139 3139 3139 3139 3138 3138 3138 3138 3138 3138 3138 3138 3138 3138 3138 3138 3138 3138 3137 3137 3137 3137 3137 3136 3136 3136 3136 3136 3136 3136 3136 3136 3135 3135 3135 3135 3135 3135 3135 3134 3134 3134 3134 3133 3133 3133 3133 3132 3132 3132 3131 3131 3130 3129 3129 3128 3127 3125 3124 3123 3122 3120 3119 3118 3116 3114 3112 3112 3111 3110 3108 3106 3105 3104 3102 3101 3100 3099 3098 3098 3097 3096 3095 3094 3093 3093
3138 3139 3139 3139 3139 3139 3138 3138 3138 3138 3138 3138 3138 3137 3138 3138 3138 3138 3137 3137 3137 3137 3136 3136 3136 3136 3136 3136 3136 3136 3136 3136 3135 3135 3135 3135 3135 3135 3135 3135 3135 3134 3134 3134 3133 3133 3133 3133 3132 3132 3132 3131 3130 3130 3129 3128 3128 3126 3125 3124 3123 3122 3120 3118 3117 3116 3114 3112 3110 3108 3108 3107 3106 3104 3103 3102 3100 3098 3097 3096 3096 3095 3095 3094 3093 3093 3092 3091
3139 3139 3139 3139 3139 3139 3139 3138 3138 3138 3138 3137 3137 3137 3138 3138 3138 3137 3137 3136 3136 3136 3136 3136 3136 3136 3136 3135 3135 3136 3135 3135 3135 3135 3135 3135 3135 3135 3135 3135 3134 3134 3134 3134 3133 3133 3133 3132 3132 3131 3131 3130 3130 3129 3128 3127 3126 3125 3124 3123 3121 3120 3119 3117 3115 3113 3111 3110 3108 3107 3107 3106 3105 3103 3101 3100 3099 3097 3096 3094 3094 3093 3092 3092 3091 3091 3090 3089
3138 3139 3139 3139 3139 3139 3139 3138 3138 3138 3137 3137 3137 3138 3137 3137 3137 3137 3137 3136 3135 3135 3135 3135 3135 3135 3135 3135 3135 3135 3135 3135 3135 3135 3135 3135 3135 3135 3135 3134 3134 3134 3134 3133 3133 3132 3132 3132 3131 3131 3130 3129 3129 3128 3127 3125 3124 3123 3122 3121 3120 3118 3117 3115 3113 3111 3109 3108 3106 3106 3107 3105 3103 3102 3100 3098 3097 3096 3094 3093 3092 3091 3090 3089 3089 3089 3088 3087
3138 3139 3139 3139 3139 3139 3139 3138 3138 3138 3137 3137 3138 3138 3137 3137 3137 3137 3137 3136 3134 3134 3134 3134 3134 3134 3134 3134 3134 3134 3134 3134 3134 3134 3134 3134 3134 3134 3134 3134 3134 3133 3133 3133 3132 3131 3131 3131 3130 3130 3129 3128 3128 3126 3125 3124 3123 3121 3120 3119 3118 3116 3115 3113 3111 3109 3107 3106 3104 3103 3104 3103 3101 3099 3097 3095 3095 3093 3092 3091 3090 3089 3088 3088 3087 3086 3085 3085
3139 3139 3139 3139 3139 3139 3138 3138 3138 3138 3138 3137 3138 3138 3137 3137 3137 3136 3137 3135 3133 3133 3133 3133 3133 3133 3133 3133 3134 3134 3134 3134 3134 3134 3134 3134 3134 3134 3133 3133 3133 3133 3132 3132 3131 3130 3130 3129 3129 3128 3127 3127 3126 3125 3124 3123 3121 3120 3118 3117 3115 3114 3112 3111 3109 3106 3105 3103 3101 3100 3101 3100 3097 3096 3095 3093 3092 3091 3089 3088 3087 3086 3086 3085 3084 3083 3083 3082
3139 3139 3139 3139 3139 3138 3138 3138 3138 3138 3138 3137 3137 3137 3137 3137 3136 3136 3137 3135 3132 3132 3132 3132 3132 3132 3132 3133 3133 3133 3133 3133 3133 3133 3133 3133 3133 3133 3133 3133 3132 3132 3131 3131 3130 3130 3129 3128 3127 3126 3126 3125 3124 3123 3122 3121 3120 3118 3117 3115 3113 3112 3109 3108 3106 3103 3103 3101 3098 3097 3098 3098 3094 3092 3092 3091 3089 3087 3086 3085 3085 3084 3083 3082 3081 3081 3080 3080
3139 3138 3138 3138 3138 3138 3138 3138 3138 3138 3137 3137 3137 3137 3137 3136 3136 3137 3136 3134 3132 3131 3131 3131 3131 3131 3132 3132 3132 3132 3132 3132 3132 3132 3132 3132 3132 3132 3132 3132 3131 3131 3130 3130 3129 3128 3128 3127 3126 3125 3124 3123 3122 3122 3121 3120 3118 3116 3115 3113 3111 3109 3106 3105 3103 3102 3102 3098 3095 3094 3095 3096 3093 3088 3087 3087 3085 3084 3083 3082 3082 3081 3080 3079 3079 3078 3078 3077
3138 3138 3138 3138 3138 3138 3138 3138 3138 3137 3137 3137 3136 3136 3136 3136 3136 3136 3135 3133 3131 3131 3131 3131 3131 3131 3131 3131 3131 3131 3131 3131 3131 3131 3131 3131 3131 3131 3131 3130 3130 3130 3129 3128 3128 3127 3126 3125 3124 3123 3122 3121 3121 3120 3119 3118 3116 3115 3113 3112 3110 3106 3104 3103 3101 3101 3100 3095 3093 3093 3093 3095 3091 3084 3083 3084 3082 3081 3080 3079 3078 3078 3077 3077 3076 3075 3075 3074
3139 3138 3138 3138 3138 3137 3137 3137 3137 3137 3136 3136 3136 3136 3135 3135 3135 3134 3133 3132 3131 3130 3130 3130 3130 3130 3130 3130 3130 3130 3130 3130 3130 3130 3130 3130 3130 3129 3129 3129 3129 3128 3128 3127 3126 3125 3124 3123 3122 3121 3120 3120 3119 3118 3117 3115 3114 3113 3112 3111 3110 3107 3104 3101 3099 3100 3097 3092 3091 3092 3092 3091 3085 3080 3080 3080 3078 3077 3077 3076 3075 3074 3074 3074 3073 3072 3072 3071
3139 3138 3138 3137 3137 3137 3137 3136 3136 3136 3135 3135 3135 3135 3135 3135 3134 3132 3132 3132 3131 3130 3130 3130 3129 3130 3129 3129 3129 3129 3129 3129 3129 3129 3129 3129 3128 3128 3128 3128 3127 3127 3126 3125 3125 3123 3122 3121 3120 3119 3118 3118 3116 3115 3114 3113 3112 3111 3110 3110 3109 3109 3108 3103 3099 3097 3093 3089 3090 3091 3091 3086 3078 3076 3077 3075 3074 3074 3073 3073 3072 3071 3071 3071 3070 3070 3069 3068
3138 3138 3137 3137 3136 3136 3136 3136 3135 3135 3134 3134 3134 3134 3134 3134 3132 3131 3131 3131 3130 3130 3129 3129 3129 3129 3129 3128 3128 3128 3128 3128 3128 3128 3127 3127 3127 3126 3126 3126 3125 3125 3124 3124 3123 3122 3120 3119 3118 3117 3116 3115 3114 3113 3112 3111 3109 3108 3108 3108 3107 3108 3108 3104 3099 3096 3091 3088 3087 3088 3087 3080 3073 3072 3072 3071 3071 3071 3070 3070 3069 3069 3068 3067 3067 3066 3066 3065
3137 3137 3136 3136 3135 3135 3135 3135 3134 3134 3133 3133 3133 3132 3132 3132 3131 3130 3130 3130 3129 3129 3129 3129 3128 3128 3128 3127 3127 3127 3127 3127 3126 3126 3126 3125 3125 3124 3124 3124 3123 3123 3123 3122 3121 3120 3119 3117 3116 3116 3114 3113 3112 3111 3110 3109 3107 3106 3105 3105 3104 3104 3105 3102 3099 3096 3094 3091 3085 3082 3078 3072 3070 3070 3068 3068 3068 3067 3067 3066 3066 3066 3065 3064 3064 3063 3063 3062
3136 3136 3135 3134 3134 3134 3134 3133 3133 3133 3132 3132 3131 3131 3131 3130 3130 3130 3129 3129 3129 3128 3128 3128 3127 3127 3127 3126 3126 3126 3126 3125 3125 3125 3124 3123 3123 3122 3122 3122 3121 3121 3121 3120 3119 3118 3116 3114 3114 3114 3112 3111 3110 3108 3108 3107 3106 3104 3102 3102 3101 3101 3101 3100 3097 3095 3096 3093 3081 3073 3070 3068 3069 3067 3064 3065 3065 3064 3064 3063 3062 3062 3061 3061 3061 3060 3060 3059
3135 3134 3134 3133 3133 3132 3132 3132 3132 3131 3131 3130 3130 3129 3129 3129 3129 3129 3128 3128 3128 3127 3127 3127 3127 3126 3125 3125 3124 3124 3124 3124 3123 3123 3122 3122 3121 3119 3120 3120 3119 3119 3119 3118 3117 3116 3113 3111 3111 3111 3110 3108 3108 3106 3104 3104 3103 3101 3100 3099 3099 3098 3098 3098 3097 3095 3096 3092 3077 3068 3066 3065 3065 3064 3061 3062 3062 3060 3060 3060 3059 3059 3058 3058 3058 3057 3056 3055
3134 3133 3132 3132 3131 3131 3131 3131 3131 3130 3130 3129 3128 3128 3128 3128 3128 3127 3127 3127 3126 3126 3126 3126 3125 3125 3124 3124 3123 3123 3123 3122 3122 3121 3121 3120 3119 3118 3118 3118 3117 3117 3117 3116 3114 3113 3111 3108 3106 3107 3106 3105 3105 3103 3101 3100 3100 3098 3097 3097 3096 3096 3095 3095 3095 3093 3091 3089 3077 3066 3062 3060 3060 3059 3057 3058 3058 3057 3057 3057 3056 3056 3055 3055 3054 3054 3053 3051
3132 3132 3131 3131 3130 3130 3130 3129 3129 3129 3128 3127 3127 3127 3127 3126 3126 3126 3126 3125 3125 3125 3124 3124 3124 3123 3123 3123 3122 3122 3122 3121 3121 3120 3119 3118 3116 3116 3116 3116 3115 3115 3114 3114 3112 3110 3110 3107 3103 3102 3103 3102 3101 3100 3098 3096 3096 3095 3094 3093 3093 3092 3092 3091 3091 3088 3086 3084 3077 3068 3059 3052 3052 3054 3054 3055 3055 3054 3054 3054 3053 3053 3052 3052 3051 3050 3049 3047
3131 3131 3130 3130 3129 3129 3128 3128 3128 3127 3127 3126 3126 3126 3125 3125 3125 3125 3124 3124 3124 3123 3123 3122 3122 3122 3121 3121 3121 3121 3120 3119 3119 3119 3117 3116 3115 3114 3114 3113 3113 3112 3112 3111 3110 3108 3107 3105 3101 3099 3099 3097 3096 3096 3094 3092 3092 3091 3090 3089 3089 3089 3089 3088 3085 3083 3082 3081 3078 3073 3058 3045 3047 3051 3051 3052 3052 3051 3051 3051 3050 3050 3049 3049 3048 3046 3045 3043
3130 3130 3129 3128 3128 3127 3127 3127 3126 3126 3125 3125 3125 3124 3124 3123 3123 3123 3123 3122 3122 3121 3121 3120 3120 3120 3120 3120 3119 3119 3119 3117 3117 3117 3115 3114 3113 3112 3112 3111 3111 3110 3109 3108 3107 3106 3105 3102 3099 3096 3094 3092 3091 3092 3090 3089 3088 3086 3085 3085 3085 3085 3086 3086 3082 3077 3077 3076 3073 3072 3057 3040 3043 3049 3048 3050 3049 3048 3049 3048 3047 3047 3046 3045 3043 3041 3039 3037
3129 3128 3128 3127 3127 3126 3126 3125 3125 3124 3124 3124 3123 3123 3122 3121 3121 3121 3121 3120 3120 3119 3119 3119 3118 3118 3118 3118 3118 3117 3117 3115 3115 3114 3113 3112 3112 3110 3109 3109 3108 3108 3107 3105 3104 3104 3102 3100 3096 3092 3089 3088 3088 3087 3086 3085 3083 3082 3082 3081 3082 3082 3081 3081 3078 3072 3073 3071 3067 3069 3058 3039 3039 3045 3046 3046 3046 3045 3046 3045 3043 3043 3041 3040 3038 3036 3034 3031
3128 3127 3127 3126 3125 3125 3124 3124 3123 3123 3122 3122 3121 3121 3120 3120 3119 3119 3119 3118 3118 3117 3117 3117 3116 3116 3116 3116 3116 3115 3115 3113 3112 3112 3111 3110 3109 3108 3107 3107 3106 3105 3104 3103 3101 3101 3100 3097 3094 3088 3085 3083 3083 3083 3082 3081 3080 3078 3077 3077 3078 3077 3075 3075 3073 3069 3069 3065 3062 3066 3056 3037 3035 3042 3042 3042 3042 3041 3041 3040 3039 3038 3036 3035 3033 3031 3029 3026
3127 3126 3125 3125 3124 3124 3123 3123 3122 3121 3121 3120 3120 3119 3119 3118 3117 3117 3117 3117 3116 3115 3115 3115 3115 3114 3114 3114 3113 3113 3113 3112 3109 3109 3109 3108 3107 3106 3105 3104 3103 3102 3102 3100 3099 3099 3097 3095 3093 3089 3084 3080 3077 3077 3077 3077 3076 3074 3074 3074 3074 3073 3073 3071 3069 3068 3066 3058 3056 3059 3049 3033 3033 3039 3038 3038 3038 3037 3037 3036 3035 3034 3032 3031 3029 3026 3024 3022
3126 3125 3124 3124 3123 3123 3122 3121 3121 3120 3119 3119 3118 3118 3117 3116 3116 3116 3115 3114 3114 3113 3113 3112 3113 3112 3112 3112 3111 3111 3111 3110 3108 3106 3106 3106 3105 3104 3103 3102 3101 3100 3099 3098 3097 3096 3094 3091 3090 3090 3087 3082 3077 3075 3075 3074 3072 3070 3069 3070 3071 3071 3070 3068 3067 3066 3060 3052 3050 3049 3039 3031 3033 3035 3034 3034 3034 3033 3033 3032 3030 3029 3027 3026 3024 3022 3020 3018
3125 3124 3123 3123 3122 3121 3121 3120 3119 3119 3118 3117 3117 3116 3116 3115 3115 3114 3113 3113 3112 3111 3111 3110 3110 3110 3109 3109 3109 3108 3108 3108 3106 3104 3103 3103 3102 3102 3101 3100 3099 3097 3096 3095 3094 3093 3091 3086 3085 3085 3082 3078 3075 3074 3075 3073 3070 3066 3065 3066 3067 3066 3065 3065 3064 3058 3051 3048 3044 3038 3033 3030 3029 3031 3031 3031 3030 3029 3028 3027 3026 3024 3023 3021 3019 3017 3015 3013
3123 3123 3122 3122 3121 3120 3119 3119 3118 3117 3117 3116 3115 3115 3114 3114 3113 3112 3111 3111 3110 3110 3109 3108 3108 3108 3107 3107 3107 3106 3105 3105 3103 3102 3101 3101 3100 3099 3098 3097 3096 3095 3094 3093 3091 3090 3087 3083 3081 3080 3076 3072 3071 3072 3072 3070 3066 3062 3061 3061 3062 3061 3060 3059 3054 3047 3046 3047 3037 3030 3032 3029 3024 3027 3028 3026 3026 3025 3023 3023 3021 3020 3018 3017 3015 3013 3011 3008
3122 3121 3121 3121 3120 3119 3118 3118 3117 3116 3115 3114 3113 3113 3113 3112 3112 3111 3109 3109 3108 3108 3107 3106 3107 3106 3105 3105 3104 3103 3102 3102 3100 3100 3099 3098 3097 3096 3095 3094 3093 3092 3090 3090 3088 3087 3085 3079 3077 3076 3071 3068 3068 3069 3068 3066 3061 3057 3056 3056 3056 3056 3054 3050 3044 3041 3044 3042 3029 3026 3030 3026 3021 3024 3024 3022 3022 3021 3019 3018 3016 3015 3014 3012 3009 3007 3005 3003
3121 3120 3119 3119 3118 3118 3117 3116 3116 3115 3114 3113 3112 3112 3111 3111 3110 3109 3108 3107 3106 3106 3105 3105 3105 3104 3103 3103 3102 3101 3101 3099 3098 3097 3096 3095 3094 3093 3092 3090 3089 3088 3087 3086 3085 3084 3082 3077 3074 3073 3068 3064 3064 3065 3063 3061 3056 3051 3050 3051 3051 3050 3047 3043 3038 3037 3038 3032 3025 3025 3026 3020 3019 3021 3020 3018 3018 3016 3015 3014 3012 3010 3009 3006 3004 3001 2999 2997
3119 3118 3118 3117 3116 3116 3115 3115 3114 3113 3113 3112 3111 3110 3109 3109 3108 3107 3107 3106 3105 3104 3104 3103 3103 3102 3101 3101 3100 3099 3099 3098 3096 3095 3094 3092 3091 3090 3089 3087 3085 3084 3083 3082 3081 3080 3078 3074 3071 3070 3066 3060 3059 3060 3059 3056 3051 3046 3044 3045 3046 3044 3041 3038 3034 3032 3031 3026 3023 3023 3020 3015 3017 3018 3017 3015 3013 3011 3010 3008 3007 3005 3003 3001 2999 2996 2994 2992
3118 3117 3116 3115 3115 3114 3114 3113 3112 3111 3111 3110 3109 3108 3108 3107 3106 3106 3105 3105 3104 3103 3102 3101 3101 3100 3099 3099 3098 3097 3097 3095 3094 3093 3092 3090 3088 3088 3086 3084 3082 3081 3079 3078 3077 3076 3075 3071 3069 3069 3065 3057 3055 3057 3054 3052 3047 3041 3038 3040 3041 3039 3036 3033 3030 3028 3026 3022 3021 3020 3016 3013 3014 3015 3013 3011 3009 3006 3004 3003 3002 3001 2998 2995 2993 2991 2989 2985
3116 3115 3115 3114 3113 3113 3112 3111 3111 3110 3109 3108 3107 3107 3106 3105 3105 3104 3103 3103 3102 3102 3101 3100 3099 3098 3097 3097 3096 3095 3094 3093 3091 3090 3089 3087 3086 3085 3083 3081 3079 3078 3076 3075 3073 3071 3071 3068 3066 3067 3064 3056 3054 3054 3051 3049 3044 3036 3034 3037 3037 3034 3031 3029 3026 3024 3022 3020 3018 3015 3012 3010 3011 3011 3009 3007 3005 3002 2999 2998 2996 2995 2993 2991 2988 2985 2982 2978